Weather in Wuwei

China     37°55′36″N   102°38′17″E
В апреле 2022 года жителям России запретили посещать сайт meteo.paraplan.net по решению Генеральной прокуратуры. Аудитория сайта уменьшилась в 10 раз. Владельцы сайта не видят смысла в поддержке погодного сервера в таких условиях. Сайт будет закрыт в октябре.
temp.,
°C
wind,
m/s
gust,
m/s
humid.,
%
clouds,
%
prec.,
mm/h
press.,
hPa
HPBL,
m
3 october, mon
mon323:00+9nnw574397 0.0 1025598
02:00+10nnw123599 0.0 1024431
05:00+8nne454379 0.0 1025258
08:00+9ne113396 0.0 1027551
11:00+11nne3214100 0.0 10271033
14:00+13ne321895 0.0 10251381
17:00+14ene332192 0.0 10241552
20:00+12ene222826 0.0 102541
4 october, tue
tue423:00+11ese473966 0.0 1025226
02:00+9ese474470 0.0 1024208
05:00+8ene36463 0.0 1024191
08:00+7ene14422 0.0 1025240
11:00+11nne22370 0.0 1023704
14:00+16ene1229100 0.0 10181188
17:00+17ssw132821 0.0 10151329
20:00+15e693497 0.0 1017702
5 october, wed
wed523:00+13ene5836100 0.0 1019429
02:00+11ne4539100 0.0 1019489
05:00+7nnw3458100 0.7 1023468
08:00+5nnw2382100 4.3 1025288
11:00+6ne2282100 1.9 1026301
14:00+6n1183100 3.1 1025318
17:00+6n1282100 0.3 1025300
20:00+7s238157 0.3 1026200
6 october, thu
thu623:00+7se22835 0.0 102639
02:00+7sse2282100 0.0 102417
05:00+7s1183100 0.0 102410
08:00+8wsw1172100 0.0 102515
11:00+12n5547100 0.0 1026868
14:00+15n443512 0.0 10231395
17:00+15nne33279 0.0 10211481
20:00+13ne2333100 0.0 102298
7 october, fri
fri723:00+12e2337100 0.0 102291
02:00+11e344297 0.0 102180
05:00+9se114561 0.0 102113
08:00+9ssw114697 0.0 102114
11:00+14wnw01345 0.0 1020478
14:00+17n35222 0.0 10171868
17:00+17n55214 0.0 10161689
20:00+14nnw362097 0.0 1019144